Regional Weather Roundup
Issued by NWS

Home | Current Version | Previous Version | Text Only | Print | Product List | Glossary On
Versions: 1 2 3 4 5 6 7 8 9 10 11 12 13 14 15 16 17 18 19 20 21 22 23 24 25 26 27 28 29 30 31 32 33 34 35 36 37 38 39 40 41 42 43 44 45 46 47 48 49 50
000
ASUS43 KLMK 282202
RWRKY
KENTUCKY REGIONAL WEATHER ROUNDUP
NATIONAL WEATHER SERVICE LOUISVILLE KY
600 PM EDT SUN MAY 28 2017

NOTE "FAIR" INDICATES FEW OR NO CLOUDS BELOW 12,000 FEET
WITH NO SIGNIFICANT WEATHER AND/OR OBSTRUCTIONS TO VISIBILITY.

KYZ001>023-026-027-061>063-070>075-282300-
WESTERN AND SOUTH CENTRAL KENTUCKY

CITY           SKY/WX    TMP DP  RH WIND       PRES   REMARKS
PADUCAH        MOSUNNY   75  63  66 SW12      29.86F
HENDERSON      LGT RAIN  75  66  73 W9        29.84S
OWENSBORO      PTSUNNY   76  65  68 SW16      29.84S
HOPKINSVILLE   MOSUNNY   75  64  69 W16       29.90R
BOWLING GREEN  CLOUDY    76  64  66 W12       29.88R
GLASGOW        NOT AVBL
$$

KYZ024-025-028>034-038-045-046-053-282300-
NORTH CENTRAL KENTUCKY

CITY           SKY/WX    TMP DP  RH WIND       PRES   REMARKS
LOUISVILLE/SDF PTSUNNY   76  64  66 W9        29.82F
LOUISVILLE/LOU SUNNY     75  65  70 W13       29.83S
FORT KNOX      SUNNY     75  62  64 SW14      29.83S
$$

KYZ035>037-039>044-047>052-055>060-089>105-282300-
NORTHEAST KENTUCKY

CITY           SKY/WX    TMP DP  RH WIND       PRES   REMARKS
LEXINGTON      CLOUDY    71  62  73 SW12      29.85R
COVINGTON      CLOUDY    72  62  71 SW10      29.80S
FRANKFORT      CLOUDY    69  64  84 W6        29.84R
$$

KYZ054-064>069-076>088-106>120-282300-
SOUTHEAST KENTUCKY

CITY           SKY/WX    TMP DP  RH WIND       PRES   REMARKS
JACKSON        MOSUNNY   75  63  66 CALM      29.87S
LONDON         CLOUDY    75  59  57 W10       29.90R
SOMERSET       NOT AVBL
MIDDLESBORO    MOSUNNY   77  60  55 W7        29.92R
MONTICELLO     MOCLDY    77  65  66 W14G22    29.92S
$$




USA.gov is the U.S. government's official web portal to all federal, state and local government web resources and services.